Stations météo

Publicité
Chartres, France (7143): Température de l'air & dewpoint: 15.07.2019 17:00:00 - 21.07.2019 17:00:00 (CEST)Chartres, France (7143): Température de l'air 5cm: 15.07.2019 17:00:00 - 21.07.2019 17:00:00 (CEST)Chartres, France (7143): Température de l'air -20cm & Température de l'air -100cm: 15.07.2019 17:00:00 - 21.07.2019 17:00:00 (CEST)Chartres, France (7143): Vitesse du vent & gusts: 15.07.2019 17:00:00 - 21.07.2019 17:00:00 (CEST)Chartres, France (7143): Direction du vent: 15.07.2019 17:00:00 - 21.07.2019 17:00:00 (CEST)Chartres, France (7143): reduced air pressure: 15.07.2019 17:00:00 - 21.07.2019 17:00:00 (CEST)Chartres, France (7143): visibility: 15.07.2019 17:00:00 - 21.07.2019 17:00:00 (CEST)Chartres, France (7143): Ensoleillement: 15.07.2019 17:00:00 - 21.07.2019 17:00:00 (CEST)Chartres, France (7143): Quantités de précipitations: 15.07.2019 17:00:00 - 21.07.2019 17:00:00 (CEST)
Date & Time tt [°C] td [°C] tt 5cm [°C] tt -20cm [°C] tt -100cm [°C] ff [km/h] ff [knt] fx [km/h] fx [knt] dd ppp [hPa] vv [km] sd [min] rr [mm]
21.07.2019 17:00:00 26,6 11,5 30,5 21,9 18,4 6 3 23 13 WNW 1021,7 20 35 0,0
21.07.2019 16:00:00 27,2 12,0 29,7 21,7 18,4 9 5 27 14 W 1021,8 20 51 0,0
21.07.2019 15:00:00 26,8 12,4 30,2 21,4 18,4 11 6 40 21 WSW 1021,9 20 50 0,0
21.07.2019 14:00:00 25,2 12,4 28,0 21,2 18,4 9 5 17 9 W 1022,4 20 39 0,0
21.07.2019 13:00:00 23,9 12,2 30,1 20,9 18,4 8 4 22 12 W 1022,7 20 58 0,0
21.07.2019 12:00:00 22,5 12,1 28,7 20,8 18,4 9 5 19 10 WNW 1022,7 20 58 0,0
21.07.2019 11:00:00 21,5 10,6 28,2 20,7 18,4 5 3 20 11 NNW 1022,8 20 58 0,0
21.07.2019 10:00:00 19,5 11,8 26,3 20,7 18,3 7 4 18 10 NNW 1022,8 20 60 0,0
21.07.2019 09:00:00 18,0 12,0 18,8 20,8 18,4 7 4 16 8 NNW 1022,5 20 53 0,0
21.07.2019 08:00:00 17,2 12,1 15,8 20,9 18,3 8 4 16 9 NW 1021,6 20 45 0,0
21.07.2019 07:00:00 16,0 12,4 15,6 21,0 18,4 9 5 16 9 NW 1021,3 20 0 0,0
21.07.2019 06:00:00 16,1 13,2 15,2 21,1 18,4 5 3 13 7 NNW 1020,8 20 0 0,0
21.07.2019 05:00:00 16,1 13,8 14,7 21,3 18,4 5 3 10 6 NNW 1020,3 20 0 0,0
21.07.2019 04:00:00 17,2 14,3 16,1 21,4 18,4 6 3 15 8 NW 1019,8 20 0 0,0
21.07.2019 03:00:00 17,4 14,7 16,3 21,4 18,3 6 3 18 10 N 1019,5 20 0 0,0
21.07.2019 02:00:00 18,3 15,2 17,6 21,5 18,3 6 3 13 7 N 1018,9 20 0 0,0
21.07.2019 01:00:00 19,0 16,0 18,4 21,6 18,3 7 4 18 10 N 1018,3 20 0 0,0
21.07.2019 00:00:00 20,8 16,2 19,3 21,7 18,4 4 2 10 5 WSW 1017,3 20 0 0,0
20.07.2019 23:00:00 20,9 16,9 19,3 21,7 18,3 4 2 12 6 W 1016,8 20 0 0,0
20.07.2019 22:00:00 21,4 17,4 20,0 21,8 18,3 6 4 21 12 WSW 1016,1 20 0 0,0
20.07.2019 21:00:00 22,1 16,8 21,4 21,8 18,3 11 6 29 16 SSW 1014,9 20 39 0,0
20.07.2019 20:00:00 24,6 15,5 24,9 21,8 18,3 16 9 36 19 WSW 1014,2 20 51 0,0
20.07.2019 19:00:00 24,4 18,1 25,3 21,8 18,3 15 8 31 17 SW 1013,8 20 55 0,0
20.07.2019 18:00:00 22,1 19,6 18,8 21,8 18,3 9 5 34 18 WSW 1014,2 20 12 1,2
20.07.2019 17:00:00 20,1 18,2 19,4 21,7 18,3 15 8 34 18 W 1014,6 8 0 0,6
20.07.2019 16:00:00 21,0 18,6 20,5 21,6 18,3 10 6 46 25 WNW 1013,8 20 0 0,2
20.07.2019 15:00:00 25,2 15,2 26,6 21,4 18,3 17 9 40 21 WSW 1013,1 20 12 0,0
20.07.2019 14:00:00 24,9 15,5 27,1 21,3 18,3 19 10 38 21 SW 1013,0 20 14 0,0
20.07.2019 13:00:00 25,0 15,6 28,0 21,1 18,3 21 12 42 23 WSW 1012,7 20 46 0,0
20.07.2019 12:00:00 24,1 15,6 27,9 21,0 18,3 19 10 37 20 WSW 1012,3 20 57 0,0
20.07.2019 11:00:00 23,5 15,5 26,9 20,9 18,3 16 9 28 15 WSW 1011,8 20 51 0,0
20.07.2019 10:00:00 22,5 15,6 25,2 20,9 18,3 15 8 28 15 WSW 1011,7 20 56 0,0
20.07.2019 09:00:00 20,6 14,0 19,2 20,9 18,3 11 6 24 13 SW 1011,1 20 35 0,0
20.07.2019 08:00:00 18,9 14,4 17,3 21,0 18,3 8 4 16 9 WSW 1011,1 20 6 0,0
20.07.2019 07:00:00 18,1 14,0 15,7 21,2 18,3 4 2 8 4 SW 1010,9 19 0 0,0
20.07.2019 06:00:00 17,5 13,0 15,5 21,3 18,3 2 1 7 4 WSW 1010,6 20 0 0,0
20.07.2019 05:00:00 18,3 12,9 14,7 21,4 18,3 4 2 13 7 WSW 1010,9 20 0 0,0
20.07.2019 04:00:00 17,0 12,3 14,8 21,6 18,3 2 1 10 5 SW 1011,0 20 0 0,0
20.07.2019 03:00:00 16,9 12,2 13,6 21,7 18,3 6 3 9 5 SSW 1011,0 20 0 0,0
20.07.2019 02:00:00 16,8 12,3 14,0 21,9 18,3 4 2 6 3 S 1011,3 20 0 0,0
20.07.2019 01:00:00 17,5 12,2 14,6 22,0 18,3 3 2 5 3 S 1011,7 20 0 0,0
20.07.2019 00:00:00 19,9 13,1 15,9 22,2 18,3 5 3 6 3 SE 1011,8 20 0 0,0
19.07.2019 23:00:00 19,9 12,9 16,6 22,3 18,3 3 2 4 2 ESE 1012,2 20 0 0,0
19.07.2019 22:00:00 24,0 13,2 20,0 22,3 18,3 3 1 10 5 WNW 1012,2 19 16 0,0
19.07.2019 21:00:00 26,7 12,4 26,3 22,3 18,3 5 3 22 12 WSW 1012,0 20 58 0,0
19.07.2019 20:00:00 27,8 12,2 30,5 22,3 18,3 9 5 21 11 WSW 1012,1 20 60 0,0
19.07.2019 19:00:00 28,2 12,5 31,6 22,2 18,3 11 6 24 13 WSW 1012,4 20 60 0,0
19.07.2019 18:00:00 27,4 13,3 29,0 22,0 18,3 11 6 32 18 SW 1012,7 20 45 0,0
19.07.2019 17:00:00 27,6 12,4 33,0 21,8 18,3 13 7 30 16 WSW 1013,0 20 60 0,0
19.07.2019 16:00:00 27,2 12,0 31,7 21,5 18,3 10 6 29 16 SW 1013,7 20 60 0,0
19.07.2019 15:00:00 26,3 12,0 31,6 21,3 18,3 8 4 34 19 SSW 1014,2 20 60 0,0
19.07.2019 14:00:00 25,0 11,9 27,4 21,0 18,3 11 6 27 14 WSW 1014,7 20 55 0,0
19.07.2019 13:00:00 24,0 13,2 27,6 20,8 18,3 9 5 22 12 S 1015,1 20 60 0,0
19.07.2019 12:00:00 23,0 13,7 24,2 20,7 18,3 11 6 22 12 SSW 1015,3 20 26 0,0
19.07.2019 11:00:00 22,1 15,2 23,3 20,6 18,3 10 5 19 10 S 1015,5 20 36 0,0
19.07.2019 10:00:00 19,7 15,6 20,3 20,6 18,2 9 5 17 9 SW 1015,9 20 11 0,0
19.07.2019 09:00:00 18,9 15,6 18,3 20,7 18,2 8 4 16 9 W 1016,0 20 33 0,0
19.07.2019 08:00:00 17,5 16,0 16,6 20,8 18,2 5 3 14 7 SSW 1015,6 18 0 0,0
19.07.2019 07:00:00 16,7 15,6 14,3 20,9 18,3 4 2 8 4 S 1015,4 20 0 0,0
19.07.2019 06:00:00 16,8 15,5 15,0 21,0 18,3 3 2 6 3 W 1015,4 20 0 0,0
19.07.2019 05:00:00 17,2 15,7 16,9 21,0 18,2 5 3 9 5 WNW 1015,4 20 0 0,0
19.07.2019 04:00:00 17,8 15,8 17,2 21,2 18,3 4 2 9 5 W 1015,4 20 0 0,0
19.07.2019 03:00:00 17,6 15,4 16,9 21,3 18,3 5 3 11 6 WSW 1015,8 20 0 0,0
19.07.2019 02:00:00 17,8 15,4 16,9 21,4 18,3 6 3 11 6 WSW 1015,7 20 0 0,0
19.07.2019 01:00:00 17,7 15,7 16,0 21,5 18,3 4 2 10 5 W 1015,6 20 0 0,0
19.07.2019 00:00:00 18,1 15,5 17,4 21,5 18,2 5 3 13 7 W 1015,3 20 0 0,0
18.07.2019 23:00:00 18,2 15,4 17,3 21,6 18,2 5 3 20 11 WNW 1015,2 20 0 0,0
18.07.2019 22:00:00 17,9 15,5 17,3 21,7 18,2 10 6 23 12 NW 1014,9 17 0 0,0
18.07.2019 21:00:00 19,3 17,3 18,9 21,7 18,2 10 5 37 20 W 1014,2 20 0 0,0
18.07.2019 20:00:00 22,1 15,9 22,1 21,7 18,2 19 10 41 22 W 1013,7 20 0 0,0
18.07.2019 19:00:00 23,3 14,3 24,8 21,6 18,3 11 6 32 17 W 1013,1 20 0 0,0
18.07.2019 18:00:00 24,8 13,0 25,9 21,5 18,2 14 8 28 15 WSW 1013,1 20 0 0,0
18.07.2019 17:00:00 24,9 13,4 26,2 21,4 18,2 10 5 34 19 W 1013,0 20 1 0,0
18.07.2019 16:00:00 25,1 13,3 28,6 21,1 18,2 12 7 30 16 W 1013,2 20 20 0,0
18.07.2019 15:00:00 25,6 10,2 29,1 20,9 18,2 13 7 32 18 W 1013,5 20 58 0,0
18.07.2019 14:00:00 24,9 9,2 29,8 20,7 18,2 15 8 31 17 W 1013,5 20 56 0,0
18.07.2019 13:00:00 24,5 8,0 28,9 20,5 18,2 15 8 27 15 WSW 1013,9 20 54 0,0
18.07.2019 12:00:00 23,0 9,4 26,0 20,4 18,2 13 7 30 16 WSW 1014,2 20 60 0,0
18.07.2019 11:00:00 20,8 11,4 24,1 20,4 18,2 11 6 24 13 W 1014,3 20 50 0,0
18.07.2019 10:00:00 20,0 11,2 24,9 20,3 18,2 7 4 16 8 WNW 1014,2 20 60 0,0
18.07.2019 09:00:00 18,2 12,4 19,8 20,4 18,2 7 4 14 8 WNW 1014,1 20 42 0,0
18.07.2019 08:00:00 15,5 12,3 13,2 20,6 18,2 4 2 10 6 NW 1014,1 19 35 0,0
18.07.2019 07:00:00 13,9 11,4 13,1 20,7 18,3 4 2 10 5 NW 1014,1 17 0 0,0
18.07.2019 06:00:00 13,9 11,2 12,8 20,8 18,2 4 2 16 8 NNW 1013,9 20 0 0,0
18.07.2019 05:00:00 14,3 10,9 13,3 21,0 18,2 9 5 20 11 N 1013,9 20 0 0,0
18.07.2019 04:00:00 14,8 10,6 13,6 21,1 18,2 8 4 15 8 N 1013,6 20 0 0,0
18.07.2019 03:00:00 15,9 10,0 14,0 21,3 18,2 6 3 14 8 NNW 1013,9 20 0 0,0
18.07.2019 02:00:00 16,6 9,3 14,5 21,4 18,2 6 3 14 7 NNW 1013,9 20 0 0,0
18.07.2019 01:00:00 17,3 9,5 15,1 21,6 18,2 7 4 12 6 NNW 1013,8 20 0 0,0
18.07.2019 00:00:00 18,3 9,1 15,9 21,7 18,2 7 4 10 6 N 1013,5 20 0 0,0
17.07.2019 23:00:00 19,9 8,9 16,9 21,9 18,3 6 3 13 7 N 1013,1 20 0 0,0
17.07.2019 22:00:00 22,0 8,8 19,8 22,0 18,2 7 4 16 9 N 1012,8 20 7 0,0
17.07.2019 21:00:00 24,5 8,8 24,3 21,9 18,2 10 5 21 11 NNE 1012,5 20 60 0,0
17.07.2019 20:00:00 26,3 9,2 28,2 21,9 18,2 11 6 21 12 N 1012,3 20 35 0,0
17.07.2019 19:00:00 27,1 9,4 28,1 21,8 18,2 8 5 24 13 WNW 1012,4 20 40 0,0
17.07.2019 18:00:00 27,2 9,1 29,7 21,6 18,2 10 5 25 14 WNW 1012,7 20 32 0,0
17.07.2019 17:00:00 28,5 8,7 32,9 21,4 18,2 8 5 25 14 NW 1012,9 20 60 0,0
17.07.2019 16:00:00 27,9 8,7 33,5 21,2 18,2 10 6 32 17 W 1013,4 20 54 0,0
17.07.2019 15:00:00 27,8 8,6 31,8 20,9 18,2 16 9 33 18 WNW 1013,7 20 49 0,0
17.07.2019 14:00:00 27,4 8,8 33,5 20,6 18,2 14 8 30 16 WNW 1013,8 20 57 0,0
17.07.2019 13:00:00 27,3 8,2 33,8 20,4 18,2 13 7 32 18 WNW 1014,2 20 60 0,0
17.07.2019 12:00:00 26,3 9,2 32,5 20,1 18,2 8 5 20 11 W 1014,5 19 60 0,0
17.07.2019 11:00:00 24,9 10,0 29,8 20,0 18,2 10 6 18 10 S 1014,7 19 60 0,0
17.07.2019 10:00:00 22,2 10,7 26,5 20,0 18,2 9 5 17 9 S 1015,4 20 60 0,0
17.07.2019 09:00:00 19,7 10,7 22,2 20,1 18,2 6 3 14 8 SSE 1015,8 20 60 0,0
17.07.2019 08:00:00 16,5 10,3 10,4 20,2 18,2 5 3 14 7 SE 1015,8 20 56 0,0
17.07.2019 07:00:00 11,7 9,1 8,8 20,4 18,2 2 1 3 1 SE 1016,2 19 4 0,0
17.07.2019 06:00:00 11,6 8,6 8,6 20,6 18,2 0 0 3 2 N 1016,4 20 0 0,0
17.07.2019 05:00:00 11,8 8,3 9,2 20,7 18,2 0 0 5 3 N 1016,3 20 0 0,0
17.07.2019 04:00:00 12,2 8,5 9,4 20,9 18,2 0 0 4 2 N 1016,5 20 0 0,0
17.07.2019 03:00:00 13,6 9,0 10,3 21,1 18,2 3 1 6 3 N 1017,0 20 0 0,0
17.07.2019 02:00:00 15,1 9,5 10,8 21,3 18,2 4 2 9 5 NW 1017,1 20 0 0,0
17.07.2019 01:00:00 14,8 9,8 11,1 21,5 18,2 2 1 3 2 NNE 1016,9 20 0 0,0
17.07.2019 00:00:00 16,5 9,2 12,5 21,6 18,2 0 0 5 3 N 1016,7 20 0 0,0
16.07.2019 23:00:00 17,6 9,0 13,8 21,7 18,2 0 0 6 3 N 1016,7 20 0 0,0
16.07.2019 22:00:00 21,7 8,9 18,4 21,8 18,2 5 3 13 7 E 1016,2 18 18 0,0
16.07.2019 21:00:00 24,8 9,1 24,9 21,8 18,2 5 3 19 10 ENE 1015,9 20 60 0,0
16.07.2019 20:00:00 26,2 7,7 30,1 21,8 18,2 11 6 18 10 NNE 1015,9 20 60 0,0
16.07.2019 19:00:00 27,4 8,3 31,7 21,6 18,2 7 4 16 8 NE 1015,7 20 60 0,0
16.07.2019 18:00:00 27,6 6,9 32,8 21,4 18,2 8 4 20 11 N 1016,1 19 60 0,0
16.07.2019 17:00:00 27,1 8,5 34,0 21,2 18,2 6 3 19 11 N 1016,7 20 60 0,0
16.07.2019 16:00:00 26,2 7,7 32,6 20,9 18,2 9 5 22 12 NW 1017,2 19 55 0,0
16.07.2019 15:00:00 25,1 7,7 31,3 20,6 18,2 6 4 20 11 N 1017,5 20 60 0,0
16.07.2019 14:00:00 24,0 9,2 31,1 20,3 18,2 8 4 18 10 NW 1018,0 20 54 0,0
16.07.2019 13:00:00 22,8 9,2 29,5 20,1 18,2 6 4 17 9 NNW 1018,4 20 60 0,0
16.07.2019 12:00:00 21,5 10,3 29,4 19,9 18,2 3 2 15 8 N 1018,9 20 60 0,0
16.07.2019 11:00:00 20,0 10,1 25,8 19,8 18,2 3 2 10 6 NNE 1019,2 19 60 0,0
16.07.2019 10:00:00 18,0 10,4 23,2 19,7 18,2 5 3 14 8 E 1019,6 20 60 0,0
16.07.2019 09:00:00 16,3 10,6 20,7 19,9 18,2 5 3 10 5 E 1019,9 18 60 0,0
16.07.2019 08:00:00 13,5 10,5 9,9 20,0 18,2 3 2 6 3 NNW 1019,9 20 60 0,0
16.07.2019 07:00:00 11,1 9,4 7,6 20,1 18,2 4 2 7 4 N 1020,1 19 10 0,0
16.07.2019 06:00:00 10,7 9,0 7,6 20,3 18,2 4 2 6 3 N 1020,0 20 0 0,0
16.07.2019 05:00:00 11,3 8,9 8,6 20,5 18,2 3 2 9 5 N 1019,8 20 0 0,0
16.07.2019 04:00:00 12,2 9,6 9,7 20,7 18,3 5 3 8 5 N 1019,8 20 0 0,0
16.07.2019 03:00:00 13,0 9,6 10,9 20,8 18,2 6 3 11 6 N 1020,1 20 0 0,0
16.07.2019 02:00:00 13,7 9,7 11,7 20,9 18,2 5 3 12 7 N 1020,0 20 0 0,0
16.07.2019 01:00:00 15,3 10,1 13,9 21,2 18,3 9 5 16 8 NNE 1019,9 20 0 0,0
16.07.2019 00:00:00 16,6 10,0 15,1 21,3 18,3 9 5 17 9 NNE 1019,6 20 0 0,0
15.07.2019 23:00:00 18,6 9,6 17,0 21,4 18,2 10 5 16 9 NNE 1019,2 20 0 0,0
15.07.2019 22:00:00 20,2 9,1 18,8 21,4 18,2 11 6 17 9 NNE 1018,6 20 22 0,0
15.07.2019 21:00:00 22,6 8,7 23,1 21,4 18,2 10 5 22 12 NNE 1018,3 20 60 0,0
15.07.2019 20:00:00 23,9 8,7 26,6 21,4 18,2 10 5 24 13 ENE 1018,0 20 60 0,0
15.07.2019 19:00:00 24,3 9,1 29,2 21,3 18,2 14 7 29 16 NE 1017,7 20 60 0,0
15.07.2019 18:00:00 24,3 9,5 30,2 21,2 18,2 14 8 28 15 NNE 1017,8 20 60 0,0
15.07.2019 17:00:00 24,3 9,8 29,5 20,9 18,2 12 7 30 16 NNE 1018,3 19 60 0,0

tt = Température de l'air
td = dewpoint
tt 5cm = Température de l'air 5cm
tt -20cm = Température de l'air -20cm
tt -100cm = Température de l'air -100cm
ff = Vitesse du vent
fx = gusts
dd = Direction du vent
ppp = reduced air pressure
vv = visibility
sd = Ensoleillement
rr = Quantités de précipitations

stations d'obs. à proximité